Tracking 29528 objects as of 13-Sep-2024
HD Live streaming from Space Station
objects crossing your sky now

MARAFON-D-GVM

Track MARAFON-D-GVM now!
10-day predictions
MARAFON-D-GVM is classified as:


NORAD ID: 59072
Int'l Code: 2024-039V
Perigee: 736.2 km
Apogee: 759.8 km
Inclination: 89.0 °
Period: 99.6 minutes
Semi major axis: 7119 km
RCS: Unknown
Launch date: February 29, 2024
Source: (TBD)
Launch site: VOSTOCHNY COSMODROME (VOSTO)

Uplink (MHz):
Downlink (MHz):
Beacon (MHz):
Mode:
Call sign:
Status: Unknown

Your satellite tracking list
Your tracking list is empty




NASA's NSSDC Master Catalog

Two Line Element Set (TLE):
1 59072U 24039V   24256.86945304  .00001634  00000-0  46031-3 0  9990
2 59072  89.0037   0.5574 0016542 358.5729   1.5425 14.45350500 28385
Source of the keplerian elements: AFSPC